www.pogodaiklimat.ru

Погода и климат >> Архив погоды >> Россия >> Хабаровский край >> Советская Гавань


ПОГОДА в Советской Гавани

  • Прогноз погоды в Советской Гавани
  • Монитор погоды в Советской Гавани
  • Климат города

АРХИВ ПОГОДЫ в Советской Гавани

Время (UTC), дата Ветер
(напр.,м/с)
 
Видим.   Явления Облачность Т
(С)
Тd
(С)
f
(%)
Тe
(С)
Тes
(С)
Комфортность P
(гПа)
Po
(гПа)
Тmin
(С)
Tmax
(С)
R
(мм)
R24
(мм)
S
(см)
12 17.01 З 2 22 км 10/0
[Ac und Ci fib]
-17.5 -20.2 79 -23 -23 1018.4 1015.6
15 17.01 ЮЗ 2 22 км 10/3 600 м
[Sc Ac As]
-16.5 -19.7 76 -22 -22 1016.5 1013.6
18 17.01 З 2 20 км 10/3 600 м
[Sc Ac As]
-15.5 -18.7 76 -21 -21 1014.7 1011.9
21 17.01 ЮЗ 2 22 км 10/4 600 м
[Sc Ac As]
-15.1 -18.2 77 -20 -20 1013.4 1010.6 -18.0 28
00 18.01 штиль 0 20 км слабый снег 10/3 600 м
[Cb cap As op Cs]
-12.6 -17.5 67 -13 -12 1012.8 1010.0
03 18.01 штиль 0 20 км 10/0
[Ac trans Cs]
-8.1 -16.3 52 -8 -6 1010.9 1008.2
06 18.01 СВ 2 20 км 10/0
[Ac trans Ci fib]
-8.0 -11.2 78 -12 -12 1011.2 1008.4
09 18.01 штиль 0 17 км 3/3 600 м
[Sc]
-11.6 -13.1 89 -12 -12 1012.6 1009.8 -7.2 0.0
12 18.01 штиль 0 16 км 3/3 600 м
[Sc]
-15.7 -17.1 89 -16 -16 1014.4 1011.6
15 18.01 З 2 17 км 3/3 600 м
[Sc]
-18.7 -20.7 84 -24 -24 1015.7 1012.8
18 18.01 З 2 20 км 3/3 600 м
[Sc]
-16.8 -20.3 74 -22 -22 1016.8 1014.0
21 18.01 штиль 0 22 км ясно -21.5 -23.7 82 -22 -22 1018.6 1015.7 -22.7 28
00 19.01 штиль 0 20 км 3/0
[Ci fib]
-21.9 -25.1 75 -22 -21 1020.1 1017.2 -22.9
03 19.01 штиль 0 20 км ясно -12.6 -20.0 54 -13 -9 1018.9 1016.1
06 19.01 СВ 2 20 км 3/0
[Ci fib]
-11.7 -16.4 68 -16 -16 1019.1 1016.3
09 19.01 штиль 0 18 км 4/3 600 м
[Sc Ci fib]
-15.9 -17.9 85 -16 -16 1019.9 1017.1 -9.3
12 19.01 штиль 0 14 км слабый снег 8/5 600 м
[Sc As op Ci fib]
-19.7 -21.6 85 -20 -20 1020.3 1017.4
15 19.01 З 2 9000 м слабый снег 10/10 600 м
[Sc As op]
-19.7 -22.0 82 -25 -25 1020.0 1017.1
18 19.01 З 2 11 км слабый снег 10/0
[Ac As]
-19.9 -22.4 80 -26 -26 1019.0 1016.2
21 19.01 З 2 8000 м слабый снег 10/0
[Ac As Ci fib]
-19.5 -21.7 83 -25 -25 1018.0 1015.1 -21.4 0.0 28
00 20.01 штиль 0 2000 м слабый снег 10/3 300 м
[Frnb Ac As Ci fib]
-17.2 -19.5 82 -17 -17 1017.2 1014.3
03 20.01 штиль 0 2000 м снег 10/0
[As op]
-13.8 -16.4 81 -14 -13 1015.5 1012.7
06 20.01 С 2 4000 м слабый ливневой снег 10/5 600 м
[Cb cap Ac lent Ci fib]
-13.5 -16.3 79 -18 -18 1014.3 1011.5
09 20.01 СВ 2 3100 м слабый ливневой снег 10/8 600 м
[Cb cap Ac trans]
-14.5 -16.8 83 -19 -19 1013.9 1011.1 -12.8 1
12 20.01 СЗ 2 2900 м ливневой снег 10/10 600 м
[Cb cap]
-15.8 -17.9 84 -21 -21 1013.0 1010.2
15 20.01 СЗ 4 900 м ливневой снег 10/10 600 м
[Cb cap]
-15.8 -17.6 86 -24 -24 1011.8 1009.0
18 20.01 СЗ 2 11 км в посл. час ливневой снег 10/5 600 м
[Cb cap Ac As]
-16.3 -18.9 80 -22 -22 1011.0 1008.1
21 20.01 СЗ 2 10 км слабый ливневой снег 10/5 600 м
[Cb cap Ac As]
-16.3 -20.0 73 -22 -22 1009.9 1007.1 -16.4 2 32
00 21.01 СЗ 4 10 км {ливн. осадки} 10/3 600 м
[Cb cap Ac As Cs]
-16.6 -23.0 58 -25 -24 1010.1 1007.3 -16.8
03 21.01 СЗ 8-12
{16}
10 км слабый снег {метель} 10/0
[Ac As Cs]
-15.7 -22.9 54 -27 -27 1009.2 1006.4
06 21.01 СЗ 8-12
{14}
10 км позёмок {снег, метель} 10/0
[As trans]
-15.9 -22.5 57 -27 -27 1009.6 1006.8
09 21.01 СЗ 4 16 км 10/0
[Ac As Ci fib]
-17.0 -25.9 46 -25 -25 1010.9 1008.1 -15.6 0.0
12 21.01 СЗ 4 12 км 10/0
[Ac As Ci fib]
-19.6 -28.5 45 -28 -28 1012.0 1009.1
15 21.01 ЮЗ 2 13 км 10/0
[Ci fib]
-21.1 -29.5 47 -27 -27 1012.7 1009.8
18 21.01 З 2 17 км 10/0
[Ac lent Ci fib]
-20.6 -29.2 46 -27 -27 1013.0 1010.1
21 21.01 ЮЗ 2 21 км 10/0
[Ci fib]
-23.5 -29.4 58 -30 -30 1013.0 1010.1 -23.5 29
00 22.01 штиль 0 50 км 3/0
[Ac lent Ci fib]
-27.0 -31.2 67 -27 -26 1013.8 1010.9 -27.9
03 22.01 штиль 0 50 км 3/0
[Ac lent Ci fib]
-18.1 -28.7 39 -18 -15 1012.8 1009.6
06 22.01 СВ 2 50 км 6/0
[]
-15.7 -28.2 33 -21 -21 1011.9 1009.1
09 22.01 З 2 50 км ясно -19.9 -29.5 42 -26 -26 1013.8 1010.9 -14.3
12 22.01 З 2 40 км 3/0
[Ci fib]
-22.7 -30.7 48 -29 -29 1016.2 1013.3
15 22.01 З 2 40 км 6/0
[Ci fib]
-24.9 -31.9 52 -32 -32 опасность
обморожения
1018.3 1015.4
18 22.01 З 4 35 км 4/0
[Ci fib]
-26.3 -33.0 53 -37 -37 опасность
обморожения
1018.4 1015.5
21 22.01 ЮЗ 2 45 км 3/0
[Ci fib]
-30.3 -35.0 63 -38 -38 опасность
обморожения
1018.6 1015.6 -31.9 28
00 23.01 штиль 0 50 км 4/0
[Ci fib]
-30.9 -35.3 65 -31 -29 опасность
обморожения
1019.0 1015.6 -33.2
03 23.01 З 2 50 км 10/0
[Ac trans Cs]
-22.3 -29.4 52 -29 -26 1016.6 1013.7
06 23.01 С 4 50 км 10/0
[Ac As]
-18.4 -25.1 56 -27 -27 1015.6 1012.7
09 23.01 СЗ 6 4000 м слабый снег 10/0
[Ac As]
-19.4 -23.6 69 -30 -30 1015.1 1012.2 -18.3 0.3
12 23.01 СЗ 4 3900 м слабый снег 10/0
[Ac As]
-19.1 -21.5 81 -28 -28 1014.4 1011.5
15 23.01 С 4 2100 м снег 10/0
[Ac As]
-18.4 -20.6 83 -27 -27 1011.2 1008.3
18 23.01 С 4 11 км ливневой снег 10/8 600 м
[Cb cap Ac As]
-17.5 -19.6 84 -26 -26 1008.8 1006.0
21 23.01 С 4 4000 м слабый ливневой снег 10/8 600 м
[Cb cap Ac As]
-16.9 -18.9 84 -25 -25 1008.5 1005.7 -19.4 5 34
00 24.01 С 4 1000 м ливневой снег 10/10 600 м
[Cb cap]
-16.6 -18.6 84 -25 -25 1008.5 1005.7
03 24.01 С 4 1000 м ливневой снег 10/10 600 м
[Cb cap]
-15.6 -17.5 85 -24 -24 1006.0 1003.2
06 24.01 С 6-12
{12}
10 км слабый ливневой снег {метель} 10/10 600 м
[Cb cap]
-14.2 -16.7 81 -24 -24 1006.3 1003.5

 

Местоположение метеостанции Советская Гавань (Хабаровский край, Россия): широта 49.00 долгота 140.30 высота над уровнем моря 24 м.

В архиве по умолчанию представлена погода в Советской Гавани за последнюю неделю. Архивные данные за месяц целиком и за предыдущие месяцы, начиная с января 2011 года, Вы можете получить, выбрав интересующий диапазон дат из раскрывающегося списка и нажав кнопку "Ввод!".

Внимание! Время в таблицах - всемирное. Для получения местного времени необходимо прибавить поправку, которая в Советской Гавани равна 10 ч.

Смотрите также архив погоды в соседних городах и на ближайших метеорологических станциях:

Погода в Тумнине (Хабаровский край, Россия) (75 км)
Погода в Мопау (Хабаровский край, Россия) (103 км)
Погода в Углегорске (Сахалинская область, Россия) (124 км)
Погода в Солекуль (Хабаровский край, Россия) (169 км)
Погода в Пильво (Сахалинская область, Россия) (175 км)
Погода в Ильинском (Сахалинская область, Россия) (180 км)
Погода в Макарове (Сахалинская область, Россия) (181 км)
Погода в Сегжеме (Хабаровский край, Россия) (203 км)
Погода в Поронайске (Сахалинская область, Россия) (205 км)
Погода в Оноре (Сахалинская область, Россия) (209 км)

Пояснения к столбцам:

Ветер - указаны скорость ветра в м/с - средняя за 10 мин, порывы в срок и между сроками (в фигурных скобках) и направление, откуда дует ветер: С - северный, СВ - северо-восточный, В - восточный, ЮВ - юго-восточный, Ю - южный, ЮЗ - юго-западный, З - западный, СЗ - северо-западный.
Видимость - горизонтальная дальность видимости в метрах или километрах. При видимости от 1 до 10 км при отсутствии осадков обычно наблюдается дымка, при ухудшении видимости до 1 км и менее - туман. В сухую погоду видимость может ухудшаться дымом, пылью или мглою.
Явления - указаны атмосферные явления, наблюдавшиеся в срок или в последний час перед сроком; фигурными скобками обозначены явления, наблюдавшиеся между сроками (за 1-3 часа до срока); квадратными скобками обозначены град или гололедные отложения с указанием их диаметра в мм.
Облачность - указаны через наклонную черту общая и нижняя облачность в баллах и высота нижней границы облаков в метрах; квадратными скобками обозначены формы облаков: Ci - перистые, Cs - перисто-слоистые, Cc - перисто-кучевые, Ac - высококучевые, As - высокослоистые, Sc - слоисто-кучевые, Ns - слоисто-дождевые, Cu - кучевые, Cb - кучево-дождевые. Подробнее классификацию облаков см. в Атласе облаков (PDF).
T - Температура воздуха - температура, измеренная на высоте 2 м над землей.
Td - Температура точки росы - температура, при понижении до которой содержащийся в воздухе водяной пар достигнет насыщения.
f - Относительная влажность воздуха - влажноcть воздуха, измеренная на высоте 2 м над землей.
Te - Эффективная температура - температура, которую ощущает одетый по сезону человек в тени. Характеристика душности погоды. При расчете учитывается влияние влажности воздуха и скорости ветра на теплоощущения человека.
Tes - Эффективная температура на солнце - температура, которую ощущает человек, с поправкой на солнечный нагрев. Характеристика знойности погоды. Зависит от высоты солнца над горизонтом, облачности и скорости ветра. Ночью, в пасмурную погоду, а также при ветре 12 м/с и более поправка равна нулю.
P - Атмосферное давление - приведенное к уровню моря атмосферное давление.
Po - Атмосферное давление - измеренное на уровне метеостанции атмосферное давление.
Tmin - Минимальная температура - минимум температуры воздуха на высоте 2 м над землей.
Tmax - Максимальная температура - максимум температуры воздуха на высоте 2 м над землей.
R - Количество осадков - Количество выпавших осадков за период времени, мм. При наведении курсора мыши на число - период времени, за который выпало указанное количество осадков.
R24 - Количество осадков - Количество выпавших осадков за 24 часа, мм.
S - Снежный покров - Высота снежного покрова, см. При наведении курсора мыши на число - состояние снежного покрова и степень покрытия местности в баллах.